SCP
0 0 0 0 0 0 0 0 0 0 0 0 0 0 0 0 0 0 0 0 0 0 0 0 0 0 0 0 0 0 0 0 0 0 0 0 0 0 0 0 0 0 0
0 0 0 0 0 0 0 0 0 0 0 0 0 0 0 0 0 0 0 0 0 0 0 0 0 0 0 0 0 0 0 0 0 0 0 0 0 0 0 0 0 0 0
0 0 0 0 0 0 0 0 0 0 0 0 0 0 0 0 0 0 0 0 0 0 0 0 0 0 0 0 0 0 0 0 0 0 0 0 0 0 0 0 0 0 0
0 0 0 0 0 0 0 0 0 0 0 0 0 0 0 0 0 0 0 0 0 0 0 0 0 0 0 0 0 0 0 0 0 0 0 0 0 0 0 0 0 0 0
0 0 0 0 0 0 0 0 0 0 0 0 0 0 0 0 0 0 0 0 0 0 0 0 0 0 0 0 0 0 0 0 0 0 0 0 0 0 0 0 0 0 0
0 0 0 0 0 0 0 0 0 0 0 0 0 0 0 0 0 0 0 0 0 0 0 0 0 0 0 0 0 0 0 0 0 0 0 0 0 0 0 0 0 0 0
0 0 0 0 0 0 0 0 0 0 0 0 0 0 0 0 0 0 0 0 0 0 0 0 0 0 0 0 0 0 0 0 0 0 0 0 0 0 0 0 0 0 0
0 0 0 0 0 0 0 0 0 0 0 0 0 0 0 0 0 0 0 0 0 0 0 0 0 0 0 0 0 0 0 0 0 0 0 0 0 0 0 0 0 0 0
0 0 0 0 0 0 0 0 0 0 0 0 0 0 0 0 0 0 0 0 0 0 0 0 0 0 0 0 0 0 0 0 0 0 0 0 0 0 0 0 0 0 0
0 0 0 0 0 0 0 0 0 0 0 0 0 0 0 0 0 0 0 0 0 0 0 0 0 0 0 0 0 0 0 0 0 0 0 0 0 0 0 0 0 0 0
0 0 0 0 0 0 0 0 0 0 0 0 0 0 0 0 0 0 0 0 0 0 0 0 0 0 0 0 0 0 0 0 0 0 0 0 0 0 0 0 0 0 0
0 0 0 0 0 0 0 0 0 0 0 0 0 0 0 0 0 0 0 0 0 0 0 0 0 0 0 0 0 0 0 0 0 0 0 0 0 0 0 0 0 0 0
0 0 0 0 0 0 0 0 0 0 0 0 0 0 0 0 0 0 0 0 0 0 0 0 0 0 0 0 0 0 0 0 0 0 0 0 0 0 0 0 0 0 0
0 0 0 0 0 0 0 0 0 0 0 0 0 0 0 0 0 0 0 0 0 0 0 0 0 0 0 0 0 0 0 0 0 0 0 0 0 0 0 0 0 0 0
0 0 0 0 0 0 0 0 0 0 0 0 0 0 0 0 0 0 0 0 0 0 0 0 0 0 0 0 0 0 0 0 0 0 0 0 0 0 0 0 0 0 0
0 0 0 0 0 0 0 0 0 0 0 0 0 0 0 0 0 0 0 0 0 0 0 0 0 0 0 0 0 0 0 0 0 0 0 0 0 0 0 0 0 0 0
0 0 0 0 0 0 0 0 0 0 0 0 0 0 0 0 0 0 0 0 0 0 0 0 0 0 0 0 0 0 0 0 0 0 0 0 0 0 0 0 0 0 0
0 0 0 0 0 0 0 0 0 0 0 0 0 0 0 0 0 0 0 0 0 0 0 0 0 0 0 0 0 0 0 0 0 0 0 0 0 0 0 0 0 0 0
0 0 0 0 0 0 0 0 0 0 0 0 0 0 0 0 0 0 0 0 0 0 0 0 0 0 0 0 0 0 0 0 0 0 0 0 0 0 0 0 0 0 0
0 0 0 0 0 0 0 0 0 0 0 0 0 0 0 0 0 0 0 0 0 0 0 0 0 0 0 0 0 0 0 0 0 0 0 0 0 0 0 0 0 0 0
0 0 0 0 0 0 0 0 0 0 0 0 0 0 0 0 0 0 0 0 0 0 0 0 0 0 0 0 0 0 0 0 0 0 0 0 0 0 0 0 0 0 0
0 0 0 0 0 0 0 0 0 0 0 0 0 0 0 0 0 0 0 0 0 0 0 0 0 0 0 0 0 0 0 0 0 0 0 0 0 0 0 0 0 0 0
0 0 0 0 0 0 0 0 0 0 0 0 0 0 0 0 0 0 0 0 0 0 0 0 0 0 0 0 0 0 0 0 0 0 0 0 0 0 0 0 0 0 0
0 0 0 0 0 0 0 0 0 0 0 0 0 0 0 0 0 0 0 0 0 0 0 0 0 0 0 0 0 0 0 0 0 0 0 0 0 0 0 0 0 0 0
0 0 0 0 0 0 0 0 0 0 0 0 0 0 0 0 0 0 0 0 0 0 0 0 0 0 0 0 0 0 0 0 0 0 0 0 0 0 0 0 0 0 0
0 0 0 0 0 0 0 0 0 0 0 0 0 0 0 0 0 0 0 0 0 0 0 0 0 0 0 0 0 0 0 0 0 0 0 0 0 0 0 0 0 0 0
Wind_Speed
6 7 9 9 10 9 9 9 10 10 10 11 11 11 11 11 11 11 11 11 11 11 11 10 10 10 11 11 11 10 10 9 8 7 9 10 10 11 11 10 10 8 11
8 8 11 10 10 10 10 10 10 10 10 11 11 11 11 11 11 11 11 11 11 11 11 11 10 11 11 10 10 10 9 7 6 5 6 9 11 11 11 11 11 7 11
9 8 10 10 10 10 11 11 11 11 11 11 11 11 11 11 11 11 10 10 10 10 11 10 10 11 10 10 9 9 8 8 8 6 5 5 7 11 11 11 11 11 11
10 9 9 10 11 11 11 11 12 11 11 11 11 11 11 11 11 10 10 10 9 9 10 10 10 10 10 9 9 9 8 8 10 9 6 6 6 11 11 11 11 11 11
10 10 10 11 11 11 11 11 11 11 11 11 11 10 10 10 10 10 9 9 8 8 9 9 9 9 9 9 8 8 8 8 9 9 7 7 6 10 11 10 10 10 10
11 10 9 11 12 12 11 11 11 11 11 11 10 10 9 9 9 9 9 8 8 8 8 8 8 8 9 8 8 8 8 9 7 6 7 7 5 10 11 10 10 10 10
10 10 10 11 11 11 12 11 11 11 11 10 10 9 8 8 8 8 8 8 8 8 8 8 8 8 8 7 7 7 8 8 4 5 7 6 6 10 11 10 11 10 11
10 11 10 11 11 11 11 11 10 10 10 10 9 9 8 8 8 8 8 8 7 8 8 8 7 7 6 5 5 6 8 8 6 7 8 6 9 11 11 10 10 10 10
8 10 9 8 9 10 11 10 10 9 9 8 8 7 7 7 7 7 7 7 7 7 7 7 7 6 5 4 4 5 7 8 5 5 8 5 9 11 11 10 10 10 10
7 7 7 8 8 8 8 9 9 8 7 7 6 5 5 5 6 7 7 7 7 7 6 6 5 5 4 2 2 3 4 4 5 8 5 6 11 11 11 10 10 9 9
6 5 5 6 6 7 7 9 7 7 6 6 5 5 4 3 4 4 7 6 6 6 5 4 4 3 2 0 1 2 3 3 7 6 5 9 11 11 11 10 10 10 9
5 5 5 4 5 5 5 5 4 4 4 3 3 4 2 2 3 5 6 6 6 5 3 3 3 3 2 1 1 1 2 6 6 6 6 12 12 12 11 11 11 10 10
5 4 5 4 4 4 3 3 1 1 1 1 2 3 2 3 2 3 2 3 3 4 2 2 2 1 1 2 3 4 6 6 5 5 7 13 13 12 12 12 12 11 10
6 4 3 4 4 4 4 3 2 1 1 2 1 3 3 2 1 2 2 1 1 1 1 1 1 2 3 5 5 7 7 5 5 4 6 12 13 13 12 12 12 11 11
6 4 3 2 4 4 4 1 3 2 2 3 2 2 4 2 2 2 3 2 2 2 2 2 3 5 6 6 7 7 6 7 6 5 5 11 13 13 13 12 12 12 11
6 6 4 3 2 4 4 3 3 3 2 3 2 2 3 2 2 3 3 2 2 2 2 3 5 5 5 5 6 7 6 5 6 5 5 7 12 12 12 12 12 12 12
6 6 4 3 3 4 5 4 3 2 3 3 2 3 4 3 3 3 3 2 2 2 3 4 5 4 5 5 5 6 6 6 5 5 5 4 5 11 13 13 13 13 13
5 6 5 3 4 5 5 3 3 3 3 3 2 3 3 4 4 3 3 2 2 3 3 3 4 4 4 4 4 5 5 4 6 6 5 5 4 5 9 14 14 14 14
5 5 5 3 4 5 4 3 3 3 3 3 3 3 4 4 5 4 3 2 3 3 3 3 4 3 4 4 4 4 4 4 4 6 6 6 6 5 5 9 14 15 15
4 5 5 4 4 5 3 3 3 3 3 3 3 3 4 4 5 3 3 4 4 3 3 4 4 4 3 2 4 5 4 3 4 4 5 5 5 6 5 6 5 9 15
5 5 5 5 4 3 2 3 2 2 2 2 3 3 4 4 4 3 3 3 4 3 3 3 3 4 2 2 3 3 3 4 4 3 3 4 5 5 5 6 4 4 6
5 5 6 5 4 4 3 3 2 2 2 2 2 3 3 3 4 3 3 3 3 3 3 3 3 2 1 1 1 2 2 2 3 3 3 4 4 4 5 6 6 6 5
5 5 4 5 5 5 4 3 3 2 2 2 2 2 2 3 3 3 3 3 3 3 2 2 2 2 1 1 1 2 2 2 1 2 3 4 4 4 4 4 6 6 7
5 5 5 4 5 6 5 3 4 3 2 2 2 2 2 2 2 2 2 3 3 2 3 2 2 2 2 1 2 2 2 3 2 1 1 2 4 4 4 5 6 6 6
6 5 5 5 5 5 5 4 3 3 3 2 3 3 3 2 2 2 2 2 3 3 3 3 3 3 2 2 1 1 2 2 2 3 2 1 2 3 3 4 4 5 5
6 5 4 4 4 4 5 6 5 4 4 3 3 3 2 2 1 2 2 2 3 3 3 3 3 3 2 3 2 2 2 2 1 2 2 2 2 2 3 3 4 4 4
Wind_Direction
81 80 83 79 73 70 73 74 74 73 73 73 74 73 76 77 76 77 74 72 70 68 68 68 65 60 60 61 61 58 54 52 57 65 73 70 65 64 63 63 69 72 72
93 85 80 78 75 72 75 77 78 78 79 78 78 76 76 78 78 78 77 74 71 69 67 65 62 60 59 61 59 56 50 41 37 51 75 75 68 65 63 63 68 73 74
96 89 80 76 76 75 75 78 79 79 81 82 82 79 78 79 79 79 78 73 69 68 69 67 61 61 59 59 56 51 43 28 18 24 59 84 77 66 66 67 70 75 74
95 86 79 79 80 79 78 80 79 77 77 80 81 79 80 80 78 78 80 75 72 70 72 71 64 62 61 58 53 44 31 18 16 39 65 66 67 68 66 67 69 74 73
91 87 82 82 82 82 81 82 82 80 79 79 80 80 81 82 81 79 81 78 76 73 73 74 71 65 62 56 49 35 22 14 21 52 62 64 63 69 68 67 69 73 74
96 93 89 87 86 84 84 83 84 83 82 83 83 82 82 82 82 78 78 78 77 78 78 77 73 67 65 56 42 29 15 15 36 62 67 65 63 70 71 69 70 72 75
103 103 100 96 93 89 87 86 86 85 83 82 82 83 84 82 82 81 78 78 78 80 80 79 76 70 66 56 39 27 15 7 52 70 73 65 62 71 73 70 70 72 73
111 111 111 106 102 96 92 91 91 92 90 86 84 83 85 86 84 84 81 80 82 83 82 82 79 75 68 56 40 26 17 17 50 74 76 64 66 71 71 70 70 70 70
113 121 131 129 117 108 102 101 100 100 99 97 96 97 98 95 90 87 86 85 86 87 87 87 87 81 71 59 35 17 20 20 32 53 70 61 65 70 71 70 69 68 68
111 118 130 130 131 128 120 117 117 117 118 120 120 124 126 121 112 99 97 100 99 99 97 98 99 98 89 68 10 1 20 15 55 60 56 61 67 70 70 71 71 70 68
105 113 117 122 129 130 132 131 138 142 146 149 157 161 155 167 139 115 99 112 111 115 118 123 126 127 123 222 311 10 20 67 74 67 52 62 68 69 69 69 69 69 68
118 118 116 117 124 125 120 134 153 148 159 184 159 162 179 113 98 104 116 136 141 144 153 172 176 171 197 223 183 43 57 74 73 70 60 64 68 68 68 67 67 67 68
118 108 111 118 118 122 118 121 119 116 148 137 101 114 99 92 118 120 141 155 170 176 183 175 208 183 134 82 68 72 65 69 69 65 60 65 66 66 66 66 64 65 66
108 109 123 134 128 114 104 101 97 78 79 69 55 88 76 60 68 90 101 98 127 123 98 99 90 80 70 71 66 68 68 72 77 78 65 65 65 65 65 65 63 64 64
128 131 125 111 110 117 105 108 98 76 51 66 29 63 88 63 61 73 83 58 52 75 79 54 60 60 54 56 59 65 68 73 79 77 69 67 65 64 64 65 63 62 61
139 135 129 107 90 103 104 89 82 81 71 64 30 17 80 71 64 62 76 70 54 67 77 78 81 75 66 63 59 59 59 66 77 87 85 70 66 63 63 64 63 61 61
138 132 122 109 98 83 83 81 86 83 82 72 41 18 57 67 66 61 70 72 62 63 68 71 76 77 82 74 65 64 57 53 63 76 90 83 72 63 63 63 63 60 59
126 122 120 119 103 90 81 79 86 80 74 71 49 23 42 64 70 55 49 64 72 68 69 80 80 78 75 71 67 63 60 50 53 66 73 78 75 71 63 63 60 58 57
126 130 132 117 102 96 99 94 78 89 77 68 54 32 33 51 63 65 44 44 63 65 66 77 80 85 87 85 88 78 64 52 50 63 66 68 71 72 69 64 62 59 56
144 144 141 120 119 117 113 100 76 66 70 71 64 49 38 42 54 61 57 45 52 63 62 70 75 75 85 91 91 89 83 74 57 55 62 65 65 70 68 66 61 59 56
165 155 143 139 132 119 109 102 97 90 80 74 69 59 51 49 45 57 58 51 58 65 68 82 82 81 86 90 85 80 67 73 76 66 60 70 66 62 63 64 62 60 56
162 156 146 142 136 125 108 114 117 105 101 95 75 64 63 57 48 57 68 69 77 72 60 66 78 73 73 102 119 125 100 44 37 71 69 67 68 63 61 64 61 65 62
166 158 149 146 140 129 130 121 115 102 93 97 96 76 63 69 61 49 58 73 83 93 87 77 83 83 53 350 48 100 120 126 104 46 67 71 64 60 56 56 59 61 67
169 155 161 163 149 142 143 141 145 136 134 135 126 127 111 96 85 58 65 75 80 79 83 64 68 64 63 13 5 29 74 115 124 114 40 66 75 66 55 56 55 57 65
164 162 171 166 149 149 151 146 149 143 148 137 126 128 125 110 109 91 69 79 86 85 84 69 61 48 50 52 39 29 39 45 65 112 115 86 64 65 68 63 61 57 59
155 157 164 154 149 153 159 159 160 149 147 139 139 141 136 120 101 104 96 80 83 82 80 77 77 66 52 48 44 53 66 64 53 80 107 117 104 80 77 69 70 65 61